Vertical_Velocity
-2 -3 -3 -3 1 0 3 -2 2 -1 2 -0 1 -5 1 -1 0 3 2 -6 -0 3 3 5 -1 1 -1 -1 -2 3 1 -2 -1 1 -4 -4 -5 -3 -3 -3 -2 0 1 -1 -1
-0 1 1 -5 2 -6 -4 4 -1 -5 -3 0 -2 7 2 -6 -1 7 -4 -3 0 3 3 6 1 1 -4 -1 -3 0 -0 -2 4 -1 -5 -4 -4 2 -4 1 -3 -1 0 -0 1
-7 -3 -2 -3 4 -1 2 -8 3 3 -7 -3 3 0 -2 0 2 -1 0 -5 4 1 1 6 5 3 -2 -2 -3 -2 -8 6 4 -1 -2 -4 -4 -1 -1 -2 -0 2 -0 -1 3
-5 -6 -6 -6 -3 -3 5 -0 -0 2 -3 -4 -2 -3 2 3 -0 1 -1 0 -0 3 6 3 3 3 1 -5 0 -3 1 2 4 -0 -1 -3 -5 -3 -1 1 1 1 1 -0 -2
-1 -5 -5 -1 1 -3 -3 6 -0 2 0 -2 -0 -7 3 -1 7 5 -3 0 2 1 7 5 3 4 1 -3 -2 -7 3 0 1 3 0 0 -3 -4 3 -1 5 -0 1 1 -3
3 -3 -8 -2 -2 -4 1 -3 -4 3 -4 -2 4 1 -7 -9 4 9 -4 3 -0 3 6 6 5 6 6 -2 -3 -8 1 2 -2 -0 -1 -1 -5 -2 9 1 4 -0 -1 -1 -4
-2 1 -5 -6 3 -1 1 -1 -0 0 -6 -3 -3 -2 -7 2 -5 -4 8 1 1 3 6 7 4 3 6 6 1 -2 -6 -0 3 1 -0 1 -12 1 -3 -1 3 2 -2 -1 -0
-5 0 -5 -2 -5 -3 -2 -3 3 -1 -9 -0 -11 -2 -11 6 -11 -0 -1 2 1 1 6 5 5 5 4 1 2 2 -2 -2 5 -2 -0 2 -20 6 3 0 -2 1 0 1 -1
-5 1 -2 -7 -3 -3 1 -1 -5 4 6 -2 -5 2 -7 -10 -19 4 -1 3 1 -1 3 4 7 2 7 3 4 -2 -3 -3 3 1 4 0 -7 2 2 -1 1 -2 0 -1 1
-1 -3 -7 1 -5 -3 -2 -0 3 -4 0 5 -1 3 -6 3 -5 1 1 6 3 9 2 1 7 -2 3 -1 -16 -8 -4 -3 -3 -3 5 -1 -5 3 1 -4 0 1 -1 -1 0
1 -3 -9 -3 0 0 -3 3 -2 -5 2 -0 -6 1 1 -13 1 3 3 4 3 6 -8 5 1 -27 4 5 1 6 -1 -3 3 3 -3 -1 -5 5 -0 -3 -0 1 -0 1 -4
1 -4 -2 -10 -2 1 -5 -2 -6 -5 -26 10 3 -20 3 -3 0 2 -0 2 -0 -5 10 7 -22 17 5 3 5 2 4 -8 4 4 -1 4 -11 1 -1 -1 1 0 2 -1 -1
2 -4 -3 -6 -1 1 -1 -2 -3 -7 -10 3 1 -4 1 4 -14 7 -2 6 -6 4 1 -7 -4 7 1 2 2 -2 3 -3 0 5 2 -1 -11 -9 1 -4 1 1 2 1 -2
-1 -5 -2 -1 -5 3 -3 -3 -0 -4 -6 3 3 6 6 9 -15 23 -2 8 2 -4 5 5 6 3 6 -2 7 1 2 3 4 5 1 -1 -6 -18 -5 -4 -6 -1 -0 7 -0
-1 -0 -5 -1 -5 5 -1 1 -1 -4 -0 1 4 3 0 3 4 4 15 24 2 -0 -1 -16 -2 6 1 -4 6 -6 -1 1 9 6 6 -3 4 -17 -3 -3 -3 -3 4 1 7
-0 -3 -3 1 -8 3 -1 1 -3 -1 -10 4 3 0 -3 2 6 1 3 14 9 7 6 -1 7 6 -10 2 2 7 1 6 1 3 4 -4 1 -7 -8 -9 -5 -4 4 1 7
1 -4 -2 -0 -6 2 -0 -1 -2 -2 4 3 1 -1 5 5 1 2 3 -3 -4 7 0 -5 4 1 3 6 9 4 6 0 4 5 -6 1 10 -24 -8 -3 -9 -1 5 0 4
-2 -2 -2 -1 -1 -1 1 3 3 2 0 -4 -5 6 1 5 6 3 1 2 3 5 2 -5 4 -6 -1 -2 -10 -2 -1 -8 -4 -1 -2 3 -3 -21 -5 -6 -0 -1 0 -0 1
-3 -0 -4 3 0 -1 1 4 -4 -2 -3 -3 3 -2 1 3 7 3 5 5 8 1 6 -2 -6 0 -3 5 -8 -1 -1 -1 2 -1 1 -2 -2 -6 2 -5 4 -0 1 -3 0
-3 -3 1 1 4 -2 8 -3 -5 -6 -10 0 -0 3 -0 0 4 6 6 7 9 2 9 2 2 4 9 10 7 1 4 2 2 1 -0 0 -1 -11 -2 -13 -1 1 2 -1 -2
-1 -5 5 -0 4 1 9 -10 -7 -10 -1 1 2 -3 2 -3 3 2 7 9 6 5 -4 8 2 6 10 4 -4 1 0 3 2 4 -1 -1 -6 -10 4 6 1 -1 9 5 2
0 -2 2 -2 3 1 2 -5 -10 -3 6 -6 -4 1 0 -3 1 2 -4 5 -2 8 2 2 -2 -8 1 2 1 4 4 7 11 -4 2 0 -16 -0 9 13 3 5 5 6 2
-3 -2 3 5 -1 -1 -4 -5 0 1 6 -3 1 2 3 -6 -7 -2 3 0 1 -2 1 7 4 -1 6 6 5 3 2 1 -2 0 -4 3 -8 7 4 9 11 -3 -8 -6 2
-1 -2 -3 -1 2 1 5 -10 -4 -4 -0 -1 -8 1 4 3 -1 1 1 -0 -2 3 2 -2 -5 2 -4 2 1 0 3 2 1 -2 -1 -5 -12 -12 -25 -8 -14 -14 -17 -1 10
0 -3 -3 4 -6 5 -1 17 1 -2 2 -0 -7 -3 4 -3 -2 -5 -3 -6 4 -0 2 -2 -3 -6 -9 4 -3 -5 -5 3 1 -1 3 -5 1 -4 -7 -12 -4 -5 -5 -2 -14
0 1 -5 -2 6 2 1 -2 -1 9 -2 -4 -5 5 -0 -16 -3 -9 12 8 2 4 6 -2 -2 -0 -4 -6 3 0 -4 -7 -2 -6 -1 0 -8 2 -6 -9 -8 2 -5 1 -2
6 1 12 -3 -4 5 -10 -4 -2 6 -3 1 0 -0 -10 3 0 -3 4 4 -2 0 3 2 1 1 -1 -2 -1 -1 -11 -3 -4 1 10 1 5 6 0 -8 -0 -3 -4 -10 -3
Height
3107 3106 3106 3105 3105 3104 3104 3104 3102 3101 3101 3101 3103 3102 3103 3103 3104 3104 3106 3108 3107 3109 3110 3111 3112 3113 3113 3115 3117 3117 3118 3117 3118 3119 3118 3119 3119 3118 3117 3115 3113 3110 3106 3102 3099
3100 3099 3099 3099 3099 3099 3098 3096 3097 3095 3097 3095 3096 3097 3097 3099 3099 3100 3101 3102 3103 3105 3106 3107 3108 3109 3110 3113 3113 3114 3113 3114 3115 3116 3116 3116 3116 3115 3114 3111 3109 3107 3103 3098 3095
3097 3095 3093 3091 3091 3091 3091 3091 3090 3089 3090 3089 3089 3092 3092 3094 3095 3094 3095 3097 3099 3100 3101 3103 3104 3105 3107 3108 3110 3110 3109 3112 3112 3113 3113 3113 3113 3112 3110 3108 3106 3104 3100 3095 3090
3093 3091 3089 3087 3085 3083 3082 3083 3083 3083 3083 3083 3082 3086 3087 3089 3094 3089 3090 3092 3093 3095 3098 3099 3100 3101 3103 3104 3107 3107 3107 3108 3110 3111 3110 3110 3110 3109 3107 3106 3103 3101 3097 3092 3086
3086 3085 3084 3082 3081 3078 3075 3075 3076 3077 3076 3076 3077 3078 3082 3084 3087 3087 3087 3088 3090 3091 3094 3096 3098 3098 3099 3100 3103 3104 3105 3105 3107 3108 3107 3107 3107 3106 3104 3102 3100 3098 3095 3091 3087
3081 3079 3078 3077 3075 3073 3071 3070 3068 3070 3069 3068 3070 3072 3075 3078 3080 3082 3084 3085 3087 3088 3090 3092 3094 3096 3096 3096 3098 3100 3102 3103 3103 3105 3105 3105 3104 3103 3102 3100 3098 3096 3094 3091 3088
3075 3073 3073 3071 3068 3067 3066 3064 3064 3063 3063 3064 3064 3065 3065 3073 3073 3077 3078 3079 3082 3083 3085 3088 3090 3092 3092 3093 3094 3096 3099 3099 3099 3101 3101 3101 3100 3099 3098 3097 3096 3095 3093 3090 3088
3070 3069 3067 3065 3063 3061 3061 3060 3059 3057 3057 3058 3057 3056 3054 3065 3066 3070 3071 3073 3076 3078 3081 3083 3085 3087 3088 3089 3090 3092 3095 3095 3095 3097 3097 3099 3094 3097 3096 3095 3094 3093 3091 3090 3088
3065 3064 3062 3060 3056 3055 3053 3053 3051 3052 3050 3051 3051 3052 3051 3056 3060 3063 3065 3067 3069 3072 3074 3076 3078 3081 3084 3084 3087 3087 3088 3090 3092 3092 3093 3094 3093 3093 3093 3092 3091 3091 3089 3088 3087
3060 3059 3057 3054 3051 3049 3047 3046 3044 3044 3045 3043 3045 3051 3051 3053 3053 3055 3057 3059 3064 3067 3069 3072 3072 3074 3075 3078 3075 3079 3083 3086 3088 3090 3089 3089 3088 3090 3089 3089 3089 3088 3087 3087 3086
3054 3054 3051 3049 3047 3045 3042 3043 3042 3040 3038 3038 3040 3041 3045 3047 3048 3050 3053 3054 3057 3060 3062 3064 3065 3062 3066 3072 3076 3079 3080 3082 3084 3086 3086 3086 3084 3086 3086 3086 3086 3085 3085 3084 3084
3049 3048 3046 3045 3044 3041 3037 3036 3035 3032 3028 3032 3032 3032 3037 3039 3041 3044 3047 3051 3052 3055 3058 3060 3056 3063 3066 3072 3074 3075 3076 3077 3080 3081 3083 3083 3082 3082 3082 3083 3083 3082 3082 3082 3081
3044 3043 3041 3041 3040 3038 3035 3034 3032 3030 3025 3022 3025 3025 3028 3029 3034 3038 3042 3045 3047 3050 3051 3053 3057 3058 3062 3066 3069 3069 3071 3074 3077 3079 3079 3079 3078 3079 3079 3078 3079 3079 3080 3079 3079
3040 3038 3037 3038 3040 3035 3033 3033 3031 3029 3024 3021 3019 3017 3020 3020 3021 3030 3034 3040 3041 3043 3047 3050 3054 3054 3056 3060 3066 3066 3069 3072 3074 3076 3076 3076 3075 3074 3074 3074 3075 3076 3076 3076 3076
3034 3033 3033 3033 3034 3032 3034 3031 3031 3031 3031 3023 3020 3018 3017 3019 3018 3019 3024 3030 3033 3039 3042 3043 3046 3049 3052 3056 3061 3062 3066 3070 3072 3071 3071 3071 3073 3065 3068 3068 3070 3072 3073 3074 3073
3028 3028 3028 3030 3030 3028 3030 3030 3031 3035 3026 3021 3018 3018 3018 3016 3016 3015 3017 3022 3030 3036 3038 3042 3044 3045 3049 3053 3057 3060 3065 3067 3068 3069 3066 3064 3069 3059 3064 3064 3065 3067 3068 3070 3070
3022 3022 3023 3025 3026 3024 3027 3028 3033 3030 3023 3021 3018 3018 3017 3015 3014 3014 3016 3017 3023 3030 3032 3037 3039 3042 3045 3049 3052 3056 3062 3065 3066 3064 3056 3059 3061 3055 3059 3059 3061 3062 3063 3065 3066
3015 3015 3017 3020 3021 3021 3023 3027 3027 3024 3022 3019 3019 3018 3016 3015 3014 3013 3014 3016 3021 3025 3028 3032 3036 3036 3039 3043 3046 3049 3054 3056 3057 3055 3053 3055 3053 3052 3053 3054 3057 3058 3059 3061 3062
3007 3007 3011 3015 3016 3016 3020 3020 3019 3021 3023 3020 3019 3018 3017 3016 3014 3013 3014 3016 3018 3022 3028 3028 3031 3031 3034 3039 3043 3046 3049 3054 3053 3053 3054 3051 3049 3050 3050 3052 3053 3055 3055 3056 3057
2998 2999 3005 3009 3010 3012 3014 3013 3015 3019 3021 3021 3020 3019 3018 3016 3015 3013 3014 3015 3016 3019 3022 3025 3027 3027 3031 3035 3039 3042 3047 3050 3050 3050 3049 3045 3047 3047 3047 3048 3048 3050 3051 3051 3052
2991 2992 2998 3001 3004 3007 3005 3006 3009 3016 3019 3019 3018 3019 3018 3018 3016 3015 3014 3016 3015 3014 3017 3022 3024 3028 3029 3032 3033 3037 3040 3042 3043 3043 3041 3043 3043 3043 3043 3044 3045 3047 3048 3048 3049
2985 2986 2990 2995 3000 2997 2999 3001 3005 3011 3013 3016 3016 3016 3017 3017 3016 3016 3016 3015 3014 3014 3014 3017 3021 3024 3025 3030 3031 3033 3036 3037 3038 3039 3040 3040 3039 3041 3041 3043 3044 3045 3045 3045 3047
2978 2979 2984 2990 2989 2992 2995 2997 3001 3004 3008 3011 3012 3012 3013 3014 3016 3014 3014 3015 3015 3014 3014 3016 3019 3022 3024 3027 3028 3029 3031 3032 3033 3035 3036 3040 3037 3038 3038 3038 3039 3040 3041 3042 3043
2974 2973 2974 2979 2982 2986 2989 2991 2994 2997 3001 3005 3007 3009 3010 3011 3011 3010 3011 3013 3014 3014 3015 3016 3017 3019 3019 3021 3024 3026 3026 3028 3029 3031 3032 3032 3034 3036 3035 3034 3035 3036 3036 3036 3038
2964 2962 2968 2972 2974 2979 2984 2986 2988 2991 2996 2998 3000 3003 3005 3007 3008 3008 3009 3010 3011 3011 3013 3016 3017 3018 3020 3021 3022 3023 3024 3025 3026 3027 3027 3028 3027 3029 3030 3030 3029 3028 3031 3030 3031
2955 2958 2962 2966 2971 2974 2977 2979 2980 2986 2990 2992 2995 2998 3000 3001 3003 3003 3006 3007 3007 3008 3009 3010 3014 3016 3018 3019 3019 3017 3019 3021 3021 3022 3019 3020 3019 3022 3022 3023 3023 3024 3024 3024 3025
2947 2950 2958 2960 2964 2969 2969 2973 2977 2982 2984 2987 2989 2992 2994 2996 2996 2997 2997 2999 3001 3004 3006 3008 3010 3012 3013 3014 3015 3014 3013 3014 3014 3014 3014 3012 3015 3015 3013 3013 3016 3016 3018 3017 3018